EW7736 Weather Reports


Display with metric or nautical units.
time (UTC)temp
F
wind
direction
speed
MPH
gust
MPH
rain 1hr
in
rain 24hr
in
rain mn
in
humidity
%
barometer
mb
20260504210946 71 46 5.0 14.0 0.00 0.00 0.00 48 1007.4
20260504205948 71 108 5.0 14.0 0.00 0.00 0.00 49 1007.3
20260504205013 71 90 4.0 13.0 0.00 0.00 0.00 47 1007.5
20260504204028 72 89 4.0 11.0 0.00 0.00 0.00 48 1007.4
20260504203040 72 102 5.0 15.0 0.00 0.00 0.00 48 1007.5
20260504202103 71 77 4.0 15.0 0.00 0.00 0.00 47 1007.6
20260504201114 72 30 4.0 12.0 0.00 0.00 0.00 46 1007.6
20260504200052 71 30 4.0 11.0 0.00 0.00 0.00 46 1007.5
20260504195058 72 103 5.0 17.0 0.00 0.00 0.00 47 1007.6
20260504194111 71 36 5.0 17.0 0.00 0.00 0.00 47 1007.7
20260504193107 72 66 6.0 15.0 0.00 0.00 0.00 49 1007.8
20260504192040 71 29 4.0 11.0 0.00 0.00 0.00 48 1007.8
20260504191057 71 91 4.0 11.0 0.00 0.00 0.00 47 1007.9
20260504190044 71 33 4.0 11.0 0.00 0.00 0.00 47 1008.0
20260504183931 71 51 3.0 13.0 0.00 0.00 0.00 48 1008.1
20260504182932 70 47 4.0 13.0 0.00 0.00 0.00 48 1008.4
20260504181949 70 35 5.0 16.0 0.00 0.00 0.00 48 1008.5
20260504180951 70 24 5.0 16.0 0.00 0.00 0.00 47 1008.7
20260504180006 70 41 5.0 15.0 0.00 0.00 0.00 49 1008.7
20260504175018 69 31 3.0 13.0 0.00 0.00 0.00 48 1008.8
20260504172823 68 34 4.0 12.0 0.00 0.00 0.00 47 1009.1
20260504171828 68 55 3.0 12.0 0.00 0.00 0.00 45 1009.1
20260504170843 68 45 4.0 11.0 0.00 0.00 0.00 49 1009.2
20260504150729 64 37 6.0 15.0 0.00 0.00 0.00 48 1010.9
20260504140758 61 38 5.0 12.0 0.00 0.00 0.00 50 1010.9
20260504130717 57 54 3.0 10.0 0.00 0.00 0.00 55 1011.2
20260504110633 49 55 3.0 8.0 0.00 0.00 0.00 60 1011.4
20260504100423 50 49 2.0 6.0 0.00 0.00 0.00 58 1011.3
20260504081248 49 39 2.0 5.0 0.00 0.00 0.00 57 1012.3
20260504080247 49 43 1.0 4.0 0.00 0.00 0.00 57 1012.3
20260504045857 50 49 0.0 2.0 0.00 0.00 0.00 52 1013.4
20260504044918 50 52 0.0 4.0 0.00 0.00 0.00 52 1013.4
20260504043915 50 57 1.0 5.0 0.00 0.00 0.00 50 1013.3
20260504042935 50 41 2.0 5.0 0.00 0.00 0.00 50 1013.4
20260504041940 50 47 1.0 6.0 0.00 0.00 0.00 50 1013.3
20260504041002 50 52 2.0 6.0 0.00 0.00 0.00 50 1013.3
20260504040024 50 49 3.0 6.0 0.00 0.00 0.00 50 1013.3
20260504035042 50 46 2.0 5.0 0.00 0.00 0.00 51 1013.3
20260504032917 50 53 1.0 3.0 0.00 0.00 0.00 50 1013.3
20260504031852 50 45 1.0 4.0 0.00 0.00 0.00 50 1013.3
20260504030909 50 44 1.0 4.0 0.00 0.00 0.00 50 1013.4
20260504025902 50 40 1.0 3.0 0.00 0.00 0.00 50 1013.5
20260504024916 51 40 1.0 3.0 0.00 0.00 0.00 49 1013.5
20260504023913 51 48 0.0 3.0 0.00 0.00 0.00 49 1013.5
20260504022917 52 45 1.0 3.0 0.00 0.00 0.00 48 1013.5
20260504021920 52 47 2.0 5.0 0.00 0.00 0.00 47 1013.6
20260504020853 52 45 2.0 5.0 0.00 0.00 0.00 47 1013.6
20260504015830 52 51 2.0 4.0 0.00 0.00 0.00 47 1013.6
20260504012659 52 52 1.0 2.0 0.00 0.00 0.00 47 1013.4
20260504011637 52 49 0.0 2.0 0.00 0.00 0.00 47 1013.5
20260504010641 53 49 1.0 3.0 0.00 0.00 0.00 45 1013.4
20260504005608 54 52 1.0 4.0 0.00 0.00 0.00 44 1013.4
20260504004614 54 50 0.0 4.0 0.00 0.00 0.00 44 1013.3
20260504003634 54 44 0.0 3.0 0.00 0.00 0.00 44 1013.3
20260504001534 54 46 0.0 4.0 0.00 0.00 0.00 44 1013.4
20260504000513 55 48 0.0 4.0 0.00 0.00 0.00 43 1013.3
20260503235507 55 49 0.0 4.0 0.00 0.00 0.00 43 1013.3
20260503234457 55 77 1.0 4.0 0.00 0.00 0.00 44 1013.4
20260503233424 55 60 1.0 4.0 0.00 0.00 0.00 43 1013.4
20260503232439 56 54 0.0 1.0 0.00 0.00 0.00 43 1013.4
20260503231410 56 103 1.0 5.0 0.00 0.00 0.00 43 1013.4
20260503230433 56 111 3.0 10.0 0.00 0.00 0.00 42 1013.5
20260503225421 56 104 5.0 11.0 0.00 0.00 0.00 40 1013.5
20260503224412 57 93 2.0 11.0 0.00 0.00 0.00 41 1013.6
20260503223346 57 56 1.0 9.0 0.00 0.00 0.00 41 1013.6
20260503222317 56 103 3.0 9.0 0.00 0.00 0.00 41 1013.7
20260503221319 57 101 2.0 7.0 0.00 0.00 0.00 41 1013.7
20260503220312 57 37 2.0 7.0 0.00 0.00 0.00 39 1013.7
20260503215301 57 96 2.0 7.0 0.00 0.00 0.00 42 1013.7
20260503214247 57 90 3.0 8.0 0.00 0.00 0.00 39 1013.7
20260503212130 58 94 4.0 14.0 0.00 0.00 0.00 40 1013.5